Regional Weather Roundup
Issued by NWS State College, PA

Home | Current Version | Previous Version | Text Only | Print | Product List | Glossary On
Versions: 1 2 3 4 5 6 7 8 9 10 11 12 13 14 15 16 17 18 19 20 21 22 23 24 25 26 27 28 29 30 31 32 33 34 35 36 37 38 39 40 41 42 43 44 45 46 47 48 49 50
560
ASUS41 KCTP 271103
RWRCTP

REGIONAL WEATHER ROUNDUP
NATIONAL WEATHER SERVICE STATE COLLEGE PA
700 AM EDT FRI MAY 27 2016

Note: "fair" indicates few or no clouds below 12,000 feet with no
significant weather and/or obstructions to visibility.

* = STATION THAT DOES NOT REPORT PRECIPITATION /E.G. RAIN...SNOW...ETC/
    THUNDER OR FOG.

PAZ002>004-007>009-013>016-020>023-029>032-271200-
WESTERN PENNSYLVANIA

CITY           SKY/WX    TMP DP  RH WIND       PRES   REMARKS
ERIE           MOSUNNY   71  65  81 S9        30.01R
MEADVILLE      CLOUDY    65  64  97 S6        30.05R
FRANKLIN*      CLOUDY    64  61  88 S7        30.08S
NEW CASTLE     FAIR      67  64  90 SW3       30.07R
BEAVER COUNTY  PTSUNNY   64  63  94 S5        30.06
BUTLER*        CLOUDY    66  63  88 S6        30.10R
PITTSBURGH INT CLOUDY    67  62  84 S3        30.06R
PITTSBURGH     CLOUDY    67  62  84 S7        30.07R
INDIANA*       PTSUNNY   66  64  94 CALM      30.12S
LATROBE        PTSUNNY   66  66 100 SW7       30.09R
WASHINGTON CO* SUNNY     63  61  94 CALM      30.08R
$$

PAZ004>006-010>012-017>019-024>028-033>037-041-042-045-046-049>053-271200-
CENTRAL PENNSYLVANIA

CITY           SKY/WX    TMP DP  RH WIND       PRES   REMARKS
BRADFORD       PTSUNNY   65  62  90 VRB3      30.10R
DUBOIS         SUNNY     63  61  93 SW5       30.09R FOG
CLEARFIELD     FOG       61  59  93 NW3       30.10R VSB 1/4
JOHNSTOWN      PTSUNNY   66  59  78 SW7       30.12R
ALTOONA        SUNNY     66  62  87 CALM      30.10S
STATE COLLEGE  SUNNY     64  63  94 CALM      30.08S
WILLIAMSPORT   PTSUNNY   65  60  84 CALM      30.05R
SELINSGROVE    CLOUDY    68  64  87 CALM      30.06S
FT INDIANTOWN  CLOUDY    67  67 100 E2        30.06S
CAPITAL CITY   MOSUNNY   71  65  81 CALM      30.06R
HARRISBURG     MOSUNNY   70  66  87 CALM      30.06R FOG
YORK           MOSUNNY   68  65  90 CALM      30.07R
$$

PAZ038>040-043-044-047-048-054-055-060>062-067>071-271200-
EASTERN PENNSYLVANIA

CITY           SKY/WX    TMP DP  RH WIND       PRES   REMARKS
SCRANTON       CLOUDY    70  64  81 CALM      30.07R
MOUNT POCONO   CLOUDY    63  61  93 W3        30.12R
ALLENTOWN      CLOUDY    69  67  93 CALM      30.07R FOG
QUAKERTOWN*    SUNNY     66  66 100 CALM      30.09R
READING        CLOUDY    70  65  84 CALM      30.06R
LANCASTER      CLOUDY    66  63  90 CALM      30.07R FOG
COATESVILLE    SUNNY     70  64  83 CALM      30.10R
POTTSTOWN      SUNNY     71  64  78 CALM      30.09R
BLUE BELL      SUNNY     68  63  83 CALM      30.08R
DOYLESTOWN     SUNNY     67  60  78 S3        30.07R
WILLOW GROVE   NOT AVBL
NORTH PHILA    SUNNY     72  64  76 CALM      30.08R
PHILADELPHIA   MOSUNNY   71  63  75 S5        30.07R
$$




USA.gov is the U.S. government's official web portal to all federal, state and local government web resources and services.